Weather reports worldwide

Advertisment
Holbeach, United Kingdom (3469): temperature & dewpoint: 16.09.2018 14:00:00 - 22.09.2018 14:00:00 (BST)Holbeach, United Kingdom (3469): temperature -20cm & temperature -100cm: 16.09.2018 14:00:00 - 22.09.2018 14:00:00 (BST)Holbeach, United Kingdom (3469): wind speed & gusts: 16.09.2018 14:00:00 - 22.09.2018 14:00:00 (BST)Holbeach, United Kingdom (3469): wind direction: 16.09.2018 14:00:00 - 22.09.2018 14:00:00 (BST)Holbeach, United Kingdom (3469): reduced air pressure: 16.09.2018 14:00:00 - 22.09.2018 14:00:00 (BST)Holbeach, United Kingdom (3469): visibility: 16.09.2018 14:00:00 - 22.09.2018 14:00:00 (BST)Holbeach, United Kingdom (3469): precipitation: 16.09.2018 14:00:00 - 22.09.2018 14:00:00 (BST)
Date & Time tt [°C] td [°C] tt -20cm [°C] tt -100cm [°C] ff [km/h] ff [kn] fx [km/h] fx [kn] dd ppp [hPa] vv [km] rr [mm]
22.09.2018 14:00:00 13,7 8,6 - - 24 13 - - WSW 1017,6 40 0,0
22.09.2018 13:00:00 13,3 10,1 - - 16 9 - - WSW 1017,8 30 0,0
22.09.2018 12:00:00 12,7 9,4 - - 21 11 - - W 1018,3 50 0,0
22.09.2018 11:00:00 12,2 9,7 - - 18 10 - - WSW 1018,1 25 0,0
22.09.2018 10:00:00 11,1 9,3 14,7 15,7 18 10 - - WSW 1017,9 35 0,0
22.09.2018 09:00:00 10,5 8,8 - - 18 10 - - WSW 1017,6 30 0,0
22.09.2018 08:00:00 9,1 8,2 - - 16 9 - - SW 1017,6 40 0,0
22.09.2018 07:00:00 8,6 7,9 - - 16 9 - - SW 1017,5 40 0,0
22.09.2018 06:00:00 8,6 7,7 - - 16 9 - - SW 1016,9 40 0,0
22.09.2018 05:00:00 9,2 7,8 - - 21 11 - - SW 1016,8 35 0,0
22.09.2018 04:00:00 8,9 7,8 - - 18 10 - - SW 1016,9 35 0,0
22.09.2018 03:00:00 9,0 7,7 - - 22 12 - - SW 1016,7 45 0,0
22.09.2018 02:00:00 9,2 7,8 - - 21 11 - - WSW 1016,3 45 0,0
22.09.2018 01:00:00 9,1 7,2 - - 22 12 - - WSW 1015,9 45 0,0
22.09.2018 00:00:00 9,0 6,8 - - 21 11 - - WSW 1015,7 50 0,0
21.09.2018 23:00:00 9,2 7,2 - - 21 11 - - WSW 1014,9 50 0,0
21.09.2018 22:00:00 9,1 7,0 - - 16 9 - - WSW 1014,1 50 0,0
21.09.2018 21:00:00 10,2 7,5 - - 24 13 - - W 1013,3 50 0,0
21.09.2018 20:00:00 10,2 7,5 - - 29 16 55 30 W 1011,8 50 0,0
21.09.2018 19:00:00 10,5 8,0 - - 35 19 55 30 W 1010,0 50 0,2
21.09.2018 18:00:00 11,2 9,2 - - 39 21 65 35 W 1008,9 10 0,4
21.09.2018 17:00:00 13,3 7,7 - - 46 25 78 42 W 1007,4 45 0,0
21.09.2018 16:00:00 14,0 8,8 - - 37 20 65 35 WSW 1006,4 35 0,0
21.09.2018 15:00:00 13,7 8,5 - - 37 20 61 33 WSW 1006,2 30 0,0
21.09.2018 14:00:00 14,0 8,0 - - 42 23 68 37 WSW 1005,6 40 0,0
21.09.2018 13:00:00 12,6 6,8 - - 50 27 68 37 WSW 1005,3 27 0,0
21.09.2018 12:00:00 13,4 5,6 - - 39 21 59 32 W 1004,4 50 0,0
21.09.2018 11:00:00 12,3 5,9 - - 41 22 63 34 W 1004,0 10 0,0
21.09.2018 10:00:00 12,1 6,5 15,9 15,7 37 20 61 33 W 1003,5 50 0,0
21.09.2018 09:00:00 10,8 6,6 - - 31 17 52 28 WSW 1002,3 45 0,0
21.09.2018 08:00:00 9,8 6,3 - - 31 17 54 29 W 1001,2 50 0,0
21.09.2018 07:00:00 9,7 6,3 - - 35 19 61 33 W 999,6 50 0,0
21.09.2018 06:00:00 10,6 6,6 - - 37 20 61 33 W 998,0 - 0,0
21.09.2018 05:00:00 10,6 7,4 - - 42 23 80 43 W 996,3 50 0,0
21.09.2018 04:00:00 14,2 10,6 - - 48 26 78 42 WSW 993,5 50 0,0
21.09.2018 03:00:00 15,2 11,8 - - 48 26 74 40 SW 992,2 45 0,6
21.09.2018 02:00:00 17,1 16,2 - - 57 31 83 45 SSW 991,7 24 1,0
21.09.2018 01:00:00 17,6 15,6 - - 52 28 78 42 SSW 992,8 10 0,0
21.09.2018 00:00:00 17,9 15,6 - - 44 24 65 35 S 994,7 18 0,0
20.09.2018 23:00:00 18,3 14,9 - - 39 21 61 33 S 996,6 30 0,0
20.09.2018 22:00:00 18,2 14,7 - - 41 22 65 35 SSW 998,7 30 0,0
20.09.2018 21:00:00 18,0 14,2 - - 44 24 59 32 SSW 1000,2 24 0,0
20.09.2018 20:00:00 18,1 14,0 - - 42 23 65 35 SSW 1000,9 28 0,0
20.09.2018 19:00:00 18,4 14,0 - - 42 23 65 35 SSW 1002,0 30 0,0
20.09.2018 18:00:00 18,6 14,5 - - 50 27 68 37 SSW 1002,8 28 0,0
20.09.2018 17:00:00 18,6 15,5 - - 46 25 63 34 SSW 1003,7 10 0,0
20.09.2018 16:00:00 18,4 16,1 - - 41 22 55 30 SSW 1004,9 18 0,0
20.09.2018 15:00:00 17,2 17,1 - - 34 18 - - SSW 1006,6 10 0,0
20.09.2018 14:00:00 14,9 14,8 - - 9 5 - - S 1007,7 8 0,6
20.09.2018 13:00:00 14,3 14,1 - - 8 4 - - S 1009,1 2,9 0,6
20.09.2018 12:00:00 14,0 13,5 - - 13 7 - - S 1010,0 10 0,0
20.09.2018 11:00:00 13,3 12,6 - - 5 3 - - S 1010,7 10 0,0
20.09.2018 10:00:00 12,4 12,0 16,0 15,7 5 3 - - SSE 1010,9 10 0,4
20.09.2018 09:00:00 11,5 11,4 - - 5 3 - - W 1011,4 6 1,6
20.09.2018 08:00:00 11,7 11,7 - - 9 5 - - SW 1011,2 6 1,8
20.09.2018 07:00:00 11,5 11,4 - - 8 4 - - S 1011,4 6 1,6
20.09.2018 06:00:00 11,6 11,4 - - 8 4 - - SSW 1011,6 4,9 0,8
20.09.2018 05:00:00 11,7 11,4 - - 11 6 - - SW 1011,8 5 0,6
20.09.2018 04:00:00 11,6 10,5 - - 18 10 - - WSW 1012,3 10 0,2
20.09.2018 03:00:00 13,0 10,8 - - 16 9 - - SW 1012,5 14 0,0
20.09.2018 02:00:00 13,2 10,3 - - 22 12 - - SW 1012,6 9 0,0
20.09.2018 01:00:00 13,4 8,7 - - 24 13 - - SW 1012,6 30 0,0
20.09.2018 00:00:00 14,2 6,8 - - 29 16 - - SW 1012,5 35 0,0
19.09.2018 23:00:00 15,2 5,9 - - 22 12 46 25 WSW 1012,5 30 0,0
19.09.2018 22:00:00 15,9 6,3 - - 28 15 46 25 WSW 1012,2 30 0,0
19.09.2018 21:00:00 16,6 6,7 - - 35 19 57 31 WSW 1011,4 30 0,0
19.09.2018 20:00:00 17,9 9,0 - - 48 26 68 37 WSW 1010,6 23 0,0
19.09.2018 19:00:00 18,3 14,5 - - 35 19 70 38 WSW 1009,6 40 0,0
19.09.2018 18:00:00 20,8 13,5 - - 48 26 87 47 WSW 1008,6 40 0,0
19.09.2018 17:00:00 22,1 12,4 - - 57 31 89 48 WSW 1007,3 30 0,0
19.09.2018 16:00:00 22,4 11,8 - - 41 22 78 42 WSW 1006,9 10 0,0
19.09.2018 15:00:00 22,9 11,5 - - 57 31 87 47 SW 1006,4 40 0,0
19.09.2018 14:00:00 22,2 11,5 - - 54 29 87 47 SW 1006,4 30 0,0
19.09.2018 13:00:00 22,6 12,6 - - 61 33 87 47 SW 1006,6 19 0,0
19.09.2018 12:00:00 21,5 13,7 - - 65 35 74 40 SW 1006,7 10 0,0
19.09.2018 11:00:00 20,2 14,0 - - 46 25 68 37 SW 1007,9 25 0,0
19.09.2018 10:00:00 19,3 14,3 16,4 15,7 46 25 67 36 SW 1008,3 23 0,0
19.09.2018 09:00:00 18,1 14,3 - - 42 23 59 32 SSW 1008,9 23 0,0
19.09.2018 08:00:00 16,5 14,9 - - 29 16 - - SSW 1009,0 25 0,0
19.09.2018 07:00:00 15,8 14,4 - - 24 13 - - SSW 1008,9 26 0,0
19.09.2018 06:00:00 16,0 14,3 - - 29 16 - - SSW 1009,2 30 0,0
19.09.2018 05:00:00 16,3 14,0 - - 29 16 - - SSW 1009,1 30 0,0
19.09.2018 04:00:00 16,9 13,9 - - 28 15 - - SSW 1009,4 28 0,0
19.09.2018 03:00:00 17,4 13,8 - - 29 16 - - SSW 1009,7 28 0,0
19.09.2018 02:00:00 17,8 13,7 - - 34 18 50 27 SSW 1009,7 35 0,0
19.09.2018 01:00:00 17,9 13,8 - - 31 17 52 28 SW 1009,5 35 0,0
19.09.2018 00:00:00 18,1 13,7 - - 37 20 52 28 SW 1009,5 40 0,0
18.09.2018 23:00:00 17,8 14,2 - - 31 17 46 25 SSW 1009,3 30 0,0
18.09.2018 22:00:00 17,7 14,1 - - 28 15 - - SSW 1009,2 35 0,0
18.09.2018 21:00:00 17,4 14,2 - - 24 13 - - SSW 1009,1 30 0,0
18.09.2018 20:00:00 18,5 13,9 - - 29 16 55 30 SW 1009,1 40 0,0
18.09.2018 19:00:00 19,8 13,9 - - 42 23 59 32 SW 1008,5 40 0,0
18.09.2018 18:00:00 20,3 13,8 - - 41 22 65 35 SW 1008,1 50 0,0
18.09.2018 17:00:00 21,1 13,8 - - 41 22 68 37 SW 1007,9 50 0,0
18.09.2018 16:00:00 21,4 13,5 - - 46 25 68 37 WSW 1007,3 35 0,0
18.09.2018 15:00:00 21,5 14,0 - - 44 24 61 33 WSW 1006,7 10 0,0
18.09.2018 14:00:00 21,3 12,6 - - 44 24 68 37 WSW 1006,0 45 0,0
18.09.2018 13:00:00 20,6 13,8 - - 44 24 68 37 SW 1005,5 30 0,0
18.09.2018 12:00:00 20,9 15,2 - - 50 27 76 41 SW 1004,3 50 0,0
18.09.2018 11:00:00 19,8 15,2 - - 46 25 68 37 SW 1003,7 45 0,0
18.09.2018 10:00:00 19,2 15,7 16,2 15,7 42 23 70 38 SW 1003,0 35 0,0
18.09.2018 09:00:00 18,9 15,2 - - 50 27 76 41 SSW 1002,3 50 0,0
18.09.2018 08:00:00 19,3 15,2 - - 46 25 63 34 SSW 1001,8 50 0,0
18.09.2018 07:00:00 18,2 15,0 - - 28 15 - - S 1001,5 45 0,0
18.09.2018 06:00:00 17,1 13,8 - - 24 13 - - S 1002,2 45 0,0
18.09.2018 05:00:00 16,6 12,1 - - 18 10 - - S 1002,7 45 0,0
18.09.2018 04:00:00 15,2 10,5 - - 21 11 - - SSW 1003,9 50 0,0
18.09.2018 03:00:00 16,2 10,3 - - 16 9 - - S 1004,0 50 0,0
18.09.2018 02:00:00 16,4 10,0 - - 16 9 - - S 1004,7 50 0,0
18.09.2018 01:00:00 16,5 9,2 - - 16 9 - - S 1005,5 50 0,0
18.09.2018 00:00:00 16,4 9,1 - - 15 8 - - S 1006,7 50 0,0
17.09.2018 23:00:00 17,0 9,7 - - 11 6 - - S 1007,5 50 0,0
17.09.2018 22:00:00 17,9 9,9 - - 15 8 - - S 1008,3 50 0,0
17.09.2018 21:00:00 19,5 10,5 - - 16 9 - - S 1008,6 50 0,0
17.09.2018 20:00:00 20,4 8,3 - - 21 11 - - S 1008,8 40 0,0
17.09.2018 19:00:00 22,0 7,6 - - 22 12 - - S 1008,9 50 0,0
17.09.2018 18:00:00 24,0 10,5 - - 24 13 46 25 S 1009,1 26 0,0
17.09.2018 17:00:00 24,4 12,4 - - 29 16 - - SSW 1009,9 30 0,0
17.09.2018 16:00:00 23,6 15,3 - - 35 19 48 26 SSW 1011,0 30 0,0
17.09.2018 15:00:00 23,0 16,3 - - 28 15 50 27 SW 1012,0 28 0,0
17.09.2018 14:00:00 22,8 15,6 - - 39 21 54 29 SSW 1012,8 45 0,0
17.09.2018 13:00:00 22,5 16,5 - - 41 22 52 28 SSW 1013,3 50 0,0
17.09.2018 12:00:00 20,6 16,4 - - 34 18 46 25 SSW 1013,9 50 0,0
17.09.2018 11:00:00 19,5 16,6 - - 26 14 - - SSW 1014,5 50 0,0
17.09.2018 10:00:00 18,5 16,6 16,0 15,7 26 14 - - SW 1014,9 29 0,0
17.09.2018 09:00:00 18,2 16,4 - - 28 15 - - SSW 1014,8 10 0,0
17.09.2018 08:00:00 17,8 16,1 - - 18 10 - - S 1014,9 20 0,0
17.09.2018 07:00:00 17,2 15,9 - - 15 8 - - SSW 1014,8 35 0,0
17.09.2018 06:00:00 17,0 15,8 - - 18 10 - - SSW 1015,1 40 0,0
17.09.2018 05:00:00 16,6 15,6 - - 18 10 - - SSW 1015,0 30 0,0
17.09.2018 04:00:00 16,1 14,9 - - 21 11 - - SSW 1015,4 30 0,0
17.09.2018 03:00:00 16,3 14,8 - - 11 6 - - S 1015,5 40 0,0
17.09.2018 02:00:00 17,0 15,0 - - 18 10 - - SW 1015,5 45 0,0
17.09.2018 01:00:00 17,2 15,2 - - 22 12 - - SSW 1016,0 45 -
17.09.2018 00:00:00 17,1 14,4 - - 24 13 - - SSW 1015,6 50 0,0
16.09.2018 23:00:00 18,0 14,6 - - 21 11 - - SSW 1015,8 45 0,0
16.09.2018 22:00:00 18,2 15,0 - - 16 9 - - SSW 1015,9 50 0,0
16.09.2018 21:00:00 18,5 14,6 - - 16 9 - - SW 1015,6 50 0,0
16.09.2018 20:00:00 19,6 14,8 - - 21 11 - - SW 1015,5 50 0,0
16.09.2018 19:00:00 20,1 14,5 - - 24 13 - - SW 1015,0 50 0,0
16.09.2018 18:00:00 21,3 14,7 - - 29 16 46 25 WSW 1015,0 50 0,0
16.09.2018 17:00:00 21,7 14,7 - - 39 21 57 31 WSW 1014,5 45 0,0
16.09.2018 16:00:00 21,8 14,6 - - 37 20 52 28 SW 1014,6 50 0,0
16.09.2018 15:00:00 22,4 14,7 - - 39 21 54 29 SW 1014,8 45 0,0
16.09.2018 14:00:00 22,2 15,5 - - 39 21 55 30 SW 1015,2 40 0,0

tt = temperature
td = dewpoint
tt -20cm = temperature -20cm
tt -100cm = temperature -100cm
ff = wind speed
fx = gusts
dd = wind direction
ppp = reduced air pressure
vv = visibility
rr = precipitation

Next stations